Liberal, KS

8:26 PM CST on February 11, 2016 (GMT -0600)
Liberal Municipal

Weather History for KLBL - December, 2013

Change the Weather History Date:

Monday, December 9, 2013

  Actual Average Record
Temperature  
Mean Temperature 12 °F -  
Max Temperature 19 °F 48 °F 76 °F (1939)
Min Temperature 6 °F 24 °F 0 °F (1978)
Degree Days  
Heating Degree Days 52    
Moisture  
Dew Point 2 °F    
Average Humidity 63    
Maximum Humidity 85    
Minimum Humidity 42    
Precipitation  
Precipitation 0.00 in - - ()
Sea Level Pressure  
Sea Level Pressure 30.23 in    
Wind  
Wind Speed 6 mph (NNE)    
Max Wind Speed 16 mph    
Max Gust Speed -    
Visibility 10 miles    
Events      
Averages and records for this station are not official NWS values.
T = Trace of Precipitation, MM = Missing Value Source: NWS Daily Summary

Daily Weather History Graph

Daily Weather History Graph

Search for Another Location

Airport or City:

Trip Planner

Search our weather history database for the weather conditions in past years. The results will help you decide how hot, cold, wet, or windy it might be!

Date:

Astronomy

Dec. 09, 2013 Rise Set
Actual Time 7:45 AM CST 5:26 PM CST
Civil Twilight 7:16 AM CST 5:55 PM CST
Nautical Twilight 6:44 AM CST 6:28 PM CST
Astronomical Twilight 6:12 AM CST 6:59 PM CST
Moon 12:48 PM CST (12/9) 12:10 AM CST (12/9)
Length of Visible Light 10h 38m
Length of Day
9h 41m
Waxing Crescent, 51% of the Moon is Illuminated
Dec 9
Waxing Crescent
Dec 17
Full
Dec 25
Last Quarter
Jan 1
New
Jan 7
First Quarter

Hourly Weather History & Observations

Time (CST) Temp. Windchill Dew Point Humidity Pressure Visibility Wind Dir Wind Speed Gust Speed Precip Events Conditions
12:15 AM 10.4 °F - 3.2 °F 73% 30.15 in 10.0 mi Calm Calm - N/A   Clear
12:35 AM 8.6 °F 2.0 °F 1.4 °F 73% 30.15 in 10.0 mi WNW 3.5 mph - N/A   Clear
12:55 AM 10.4 °F 0.8 °F 5.0 °F 79% 30.15 in 10.0 mi West 5.8 mph - N/A   Clear
1:15 AM 10.4 °F 4.0 °F 6.8 °F 85% 30.15 in 10.0 mi West 3.5 mph - N/A   Partly Cloudy
1:35 AM 12.2 °F 4.3 °F 6.8 °F 79% 30.15 in 10.0 mi West 4.6 mph - N/A   Scattered Clouds
1:55 AM 12.2 °F 6.1 °F 6.8 °F 79% 30.16 in 10.0 mi West 3.5 mph - N/A   Partly Cloudy
2:15 AM 12.2 °F 4.3 °F 6.8 °F 79% 30.16 in 10.0 mi NW 4.6 mph - N/A   Clear
2:35 AM 12.2 °F 2.9 °F 6.8 °F 79% 30.16 in 10.0 mi WNW 5.8 mph - N/A   Partly Cloudy
2:55 AM 14.0 °F 5.1 °F 8.6 °F 79% 30.16 in 10.0 mi NW 5.8 mph - N/A   Clear
3:15 AM 15.8 °F 7.2 °F 8.6 °F 73% 30.18 in 10.0 mi NW 5.8 mph - N/A   Clear
3:35 AM 15.8 °F 5.1 °F 8.6 °F 73% 30.18 in 10.0 mi NW 8.1 mph - N/A   Clear
3:55 AM 15.8 °F 5.1 °F 8.6 °F 73% 30.18 in 10.0 mi North 8.1 mph - N/A   Clear
4:15 AM 15.8 °F 1.4 °F 8.6 °F 73% 30.18 in 10.0 mi NNW 13.8 mph - N/A   Clear
4:35 AM 15.8 °F 0.3 °F 8.6 °F 73% 30.18 in 10.0 mi NNW 16.1 mph - N/A   Clear
4:55 AM 14.0 °F -2.0 °F 6.8 °F 73% 30.18 in 10.0 mi NNE 16.1 mph - N/A   Clear
5:15 AM 12.2 °F -2.5 °F 5.0 °F 73% 30.19 in 10.0 mi NNE 12.7 mph - N/A   Clear
5:35 AM 12.2 °F -3.1 °F 3.2 °F 67% 30.20 in 10.0 mi NNE 13.8 mph - N/A   Clear
5:55 AM 12.2 °F -2.5 °F 3.2 °F 67% 30.21 in 10.0 mi North 12.7 mph - N/A   Scattered Clouds
6:15 AM 10.4 °F -6.0 °F 1.4 °F 67% 30.22 in 10.0 mi North 15.0 mph - N/A   Partly Cloudy
6:35 AM 10.4 °F -4.1 °F 1.4 °F 67% 30.23 in 10.0 mi North 11.5 mph - N/A   Clear
6:55 AM 10.4 °F -5.4 °F 1.4 °F 67% 30.23 in 10.0 mi North 13.8 mph - N/A   Partly Cloudy
7:15 AM 10.4 °F -4.1 °F 1.4 °F 67% 30.24 in 10.0 mi NNE 11.5 mph - N/A   Mostly Cloudy
7:35 AM 10.4 °F -4.1 °F 1.4 °F 67% 30.25 in 10.0 mi NNE 11.5 mph - N/A   Overcast
7:55 AM 10.4 °F -5.4 °F 1.4 °F 67% 30.24 in 10.0 mi North 13.8 mph - N/A   Mostly Cloudy
8:15 AM 10.4 °F -4.1 °F -0.4 °F 62% 30.25 in 10.0 mi NNE 11.5 mph - N/A   Partly Cloudy
8:35 AM 8.6 °F -6.3 °F -0.4 °F 67% 30.25 in 10.0 mi NNE 11.5 mph - N/A   Clear
8:55 AM 8.6 °F -4.7 °F -0.4 °F 67% 30.26 in 10.0 mi NE 9.2 mph - N/A   Clear
9:15 AM 8.6 °F -5.5 °F -2.2 °F 62% 30.26 in 10.0 mi NE 10.4 mph - N/A   Partly Cloudy
9:35 AM 8.6 °F -4.7 °F -0.4 °F 67% 30.27 in 10.0 mi NNE 9.2 mph - N/A   Clear
9:55 AM 10.4 °F -3.3 °F -0.4 °F 62% 30.28 in 10.0 mi NE 10.4 mph - N/A   Clear
10:15 AM 10.4 °F -3.3 °F 1.4 °F 67% 30.29 in 10.0 mi NE 10.4 mph - N/A   Clear
10:35 AM 12.2 °F -1.8 °F 1.4 °F 62% 30.29 in 10.0 mi ENE 11.5 mph - N/A   Mostly Cloudy
10:55 AM 12.2 °F 0.7 °F 1.4 °F 62% 30.29 in 10.0 mi ENE 8.1 mph - N/A   Scattered Clouds
11:15 AM 12.2 °F -0.2 °F 1.4 °F 62% 30.29 in 10.0 mi ENE 9.2 mph - N/A   Scattered Clouds
11:35 AM 15.8 °F 3.4 °F 1.4 °F 53% 30.29 in 10.0 mi East 10.4 mph - N/A   Scattered Clouds
11:55 AM 15.8 °F 6.1 °F 1.4 °F 53% 30.27 in 10.0 mi ENE 6.9 mph - N/A   Partly Cloudy
12:15 PM 15.8 °F 8.6 °F 3.2 °F 58% 30.26 in 10.0 mi ENE 4.6 mph - N/A   Scattered Clouds
12:35 PM 15.8 °F 7.2 °F 1.4 °F 53% 30.25 in 10.0 mi ENE 5.8 mph - N/A   Scattered Clouds
12:55 PM 17.6 °F 9.3 °F 1.4 °F 49% 30.25 in 10.0 mi ESE 5.8 mph - N/A   Partly Cloudy
1:15 PM 17.6 °F 7.3 °F 1.4 °F 49% 30.22 in 10.0 mi East 8.1 mph - N/A   Clear
1:35 PM 17.6 °F 9.3 °F 1.4 °F 49% 30.22 in 10.0 mi East 5.8 mph - N/A   Partly Cloudy
1:55 PM 17.6 °F - 1.4 °F 49% 30.22 in 10.0 mi Calm Calm - N/A   Partly Cloudy
2:15 PM 17.6 °F 10.7 °F 1.4 °F 49% 30.21 in 10.0 mi ENE 4.6 mph - N/A   Clear
2:35 PM 19.4 °F - 1.4 °F 46% 30.22 in 10.0 mi Calm Calm - N/A   Mostly Cloudy
2:55 PM 17.6 °F - -0.4 °F 45% 30.21 in 10.0 mi Calm Calm - N/A   Overcast
3:15 PM 17.6 °F - 1.4 °F 49% 30.21 in 10.0 mi Calm Calm - N/A   Overcast
3:35 PM 19.4 °F - 1.4 °F 46% 30.22 in 10.0 mi Calm Calm - N/A   Mostly Cloudy
3:55 PM 19.4 °F - -0.4 °F 42% 30.22 in 10.0 mi Calm Calm - N/A   Scattered Clouds
4:15 PM 19.4 °F - 1.4 °F 46% 30.22 in 10.0 mi Calm Calm - N/A   Partly Cloudy
4:35 PM 19.4 °F - 1.4 °F 46% 30.21 in 10.0 mi Calm Calm - N/A   Clear
4:55 PM 19.4 °F 14.3 °F -0.4 °F 42% 30.23 in 10.0 mi SSE 3.5 mph - N/A   Clear
5:15 PM 17.6 °F 12.3 °F -0.4 °F 45% 30.23 in 10.0 mi South 3.5 mph - N/A   Clear
5:35 PM 17.6 °F 12.3 °F 1.4 °F 49% 30.23 in 10.0 mi South 3.5 mph - N/A   Clear
5:55 PM 15.8 °F 10.2 °F -0.4 °F 49% 30.24 in 10.0 mi South 3.5 mph - N/A   Clear
6:15 PM 14.0 °F 5.1 °F -0.4 °F 53% 30.24 in 10.0 mi South 5.8 mph - N/A   Clear
6:35 PM 12.2 °F 2.9 °F -0.4 °F 57% 30.25 in 10.0 mi South 5.8 mph - N/A   Clear
6:55 PM 12.2 °F 1.7 °F -2.2 °F 53% 30.24 in 10.0 mi SSW 6.9 mph - N/A   Clear
7:15 PM 10.4 °F 4.0 °F -0.4 °F 62% 30.25 in 10.0 mi South 3.5 mph - N/A   Clear
7:35 PM 10.4 °F 4.0 °F -0.4 °F 62% 30.25 in 10.0 mi South 3.5 mph - N/A   Clear
7:55 PM 8.6 °F - -2.2 °F 62% 30.26 in 10.0 mi Calm Calm - N/A   Clear
8:15 PM 8.6 °F -1.3 °F -2.2 °F 62% 30.27 in 10.0 mi South 5.8 mph - N/A   Clear
8:35 PM 8.6 °F 0.1 °F -2.2 °F 62% 30.27 in 10.0 mi South 4.6 mph - N/A   Clear
8:55 PM 8.6 °F -2.6 °F -0.4 °F 67% 30.27 in 10.0 mi SSW 6.9 mph - N/A   Clear
9:15 PM 6.8 °F -5.9 °F -5.8 °F 56% 30.27 in 10.0 mi SW 8.1 mph - N/A   Clear
9:35 PM 8.6 °F 0.1 °F -0.4 °F 67% 30.27 in 10.0 mi SSW 4.6 mph - N/A   Clear
9:55 PM 8.6 °F -3.7 °F -2.2 °F 62% 30.27 in 10.0 mi South 8.1 mph - N/A   Clear
10:15 PM 6.8 °F -4.8 °F -0.4 °F 72% 30.27 in 10.0 mi SW 6.9 mph - N/A   Clear
10:35 PM 8.6 °F -2.6 °F -0.4 °F 67% 30.27 in 10.0 mi SSW 6.9 mph - N/A   Clear
10:55 PM 8.6 °F -2.6 °F 1.4 °F 73% 30.28 in 10.0 mi SSW 6.9 mph - N/A   Clear
11:15 PM 10.4 °F -2.4 °F 3.2 °F 73% 30.27 in 10.0 mi SSW 9.2 mph - N/A   Clear
11:35 PM 10.4 °F -0.4 °F 1.4 °F 67% 30.26 in 10.0 mi SW 6.9 mph - N/A   Clear
11:55 PM 8.6 °F -2.6 °F 1.4 °F 73% 30.26 in 10.0 mi SW 6.9 mph - N/A   Clear